Regional Weather Roundup
Issued by NWS Cleveland, OH

Home | Current Version | Previous Version | Text Only | Print | Product List | Glossary Off
Versions: 1 2 3 4 5 6 7 8 9 10 11 12 13 14 15 16 17 18 19 20 21 22 23 24 25 26 27 28 29 30 31 32 33 34 35 36 37 38 39 40 41 42 43 44 45 46 47 48 49 50

000
ASUS41 KCLE 230800
RWRCLE
OHIO REGIONAL WEATHER ROUNDUP
NATIONAL WEATHER SERVICE WILMINGTON, OH
400 AM EDT THU OCT 23 2014

NOTE: "FAIR" INDICATES FEW OR NO CLOUDS BELOW 12,000 FEET WITH NO
SIGNIFICANT WEATHER AND/OR OBSTRUCTIONS TO VISIBILITY.

OHZ001>008-015>018-024>027-034-035-043-044-230900-
   NORTHWEST OHIO

CITY           SKY/WX    TMP DP  RH WIND       PRES   REMARKS
DEFIANCE       CLEAR     34  32  92 CALM      30.28S FOG
FINDLAY        CLEAR     40  37  89 W5        30.25S
TOLEDO EXPRESS CLEAR     35  32  88 CALM      30.26F
TOLEDO METCALF CLEAR     38  35  89 NW5       30.26F
LIMA           CLEAR     39  36  89 NW5       30.26S
$$

OHZ009>014-019>023-028>033-038-089-230900-
   NORTHEAST OHIO

CITY           SKY/WX    TMP DP  RH WIND       PRES   REMARKS
CLE-HOPKINS    PTCLDY    43  41  93 W8        30.22F
CLE-LAKEFRONT  PTCLDY    52  46  80 N13       30.18F
CUY CO. ARPT   NOT AVBL
LORAIN-ELYRIA  CLEAR     43  42  97 NW7       30.22F
ASHTABULA      CLOUDY    44  42  93 NW3       30.18S
AKRON-CANTON   CLEAR     46  43  89 NW7       30.17S
WOOSTER        NOT AVBL
MANSFIELD      PTCLDY    41  41 100 NW7       30.21F
YOUNGSTOWN     PTCLDY    41  39  93 N8        30.15S
$$

OHZ042-051>053-060>062-070>072-077>081-230900-
  SOUTHWEST OHIO

CITY           SKY/WX    TMP DP  RH WIND       PRES   REMARKS
CINC-COVINGTON CLOUDY    47  40  76 N3        30.26S
CINC-LUNKEN    CLOUDY    46  43  89 CALM      30.28S
HAMILTON       CLOUDY    44  41  89 CALM      30.28S
DAYTON         NOT AVBL
WRIGHT-PAT AFB CLOUDY    45  41  85 SE1       30.26R
DAYTON GENERAL CLOUDY    44  40  85 CALM      30.25S
WILMINGTON     CLOUDY    46  39  76 NW7       30.25R
$$

OHZ036-037-039>041-045>050-054>059-063>069-073>076-082>088-230900-
  CENTRAL AND SOUTHEAST OHIO

CITY           SKY/WX    TMP DP  RH WIND       PRES   REMARKS
COLUMBUS       CLEAR     43  39  86 N6        30.22F
OSU AIRPORT    CLEAR     42  39  89 NW8       30.23F
BOLTON FIELD   NOT AVBL
RICKENBACK AFB NOT AVBL
NEWARK         CLEAR     42  39  89 NW3       30.21S
MARION         CLEAR     40  38  93 NW5       30.23F FOG
LANCASTER      CLEAR     43  39  86 NW5       30.22S
ZANESVILLE     CLOUDY    42  40  92 CALM      30.19F
NEW PHILLY     PTCLDY    44  42  93 CALM      30.19S
$$



USA.gov is the U.S. government's official web portal to all federal, state and local government web resources and services.